This is the latest recevied weather packets stored in our database for station/object KG4AGD. If no packets are shown the sender has not sent any weather packets the latest 10 day(s).
| Time | Temp. | Humidity | Pressure | Rain* | Wind** | Luminosity | Snow |
|---|---|---|---|---|---|---|---|
| 1777581276 | 21.67° C | 60% | 1010.4 hPa | 8.89 mm | - | - | - |
| 1777580974 | 21.67° C | 61% | 1010.4 hPa | 8.89 mm | - | - | - |
| 1777580369 | 22.22° C | 58% | 1010.4 hPa | 8.89 mm | - | - | - |
| 1777580067 | 22.22° C | 57% | 1010.4 hPa | 8.89 mm | - | - | - |
| 1777579765 | 22.22° C | 55% | 1010.4 hPa | 8.89 mm | - | - | - |
| 1777579463 | 22.78° C | 59% | 1010.4 hPa | 8.89 mm | - | - | - |
| 1777579160 | 23.33° C | 59% | 1010.4 hPa | 8.89 mm | - | - | - |
| 1777578556 | 23.33° C | 54% | 1010.4 hPa | 8.89 mm | - | - | - |
| 1777577952 | 22.22° C | 60% | 1010.4 hPa | 8.89 mm | - | - | - |
| 1777577650 | 23.89° C | 53% | 1010.4 hPa | 8.89 mm | - | - | - |
| 1777577348 | 23.89° C | 61% | 1010.4 hPa | 8.89 mm | - | - | - |
| 1777577045 | 23.33° C | 56% | 1010.4 hPa | 8.89 mm | - | - | - |
| 1777576743 | 23.33° C | 60% | 1010.4 hPa | 8.89 mm | - | - | - |
| 1777576441 | 22.78° C | 51% | 1010.4 hPa | 8.89 mm | - | - | - |
| 1777576139 | 22.78° C | 57% | 1010.4 hPa | 8.89 mm | - | - | - |
| 1777575535 | 22.78° C | 57% | 1010.4 hPa | 8.89 mm | - | - | - |
| 1777575233 | 22.78° C | 53% | 1010.4 hPa | 8.89 mm | - | - | - |
| 1777574931 | 22.22° C | 54% | 1010.4 hPa | 8.89 mm | - | - | - |
| 1777574326 | 22.78° C | 60% | 1010.1 hPa | 8.89 mm | - | - | - |
| 1777571909 | 21.67° C | 67% | 1010.1 hPa | 8.89 mm | - | - | - |
| 1777571607 | 21.11° C | 65% | 1010.4 hPa | 8.89 mm | - | - | - |
| 1777569491 | 20° C | 72% | 1010.8 hPa | 8.89 mm | - | - | - |
| 1777566771 | 18.33° C | 85% | 1011.1 hPa | 8.89 mm | - | - | - |
| 1777566469 | 17.78° C | 83% | 1011.1 hPa | 8.89 mm | - | - | - |
| 1777565865 | 17.78° C | 85% | 1011.5 hPa | 8.89 mm | - | - | - |
* Rain since midnight (hover to see other rain measurements)
** Current wind speed in m/s (hover to see current wind gust speed)